GW7325 Weather Reports


time (UTC)temp
F
wind
direction
speed
knots
gust
knots
rain 1hr
in
rain 24hr
in
rain mn
in
humidity
%
barometer
mb
20260505031503 59 193 3.5 15.6 0.00 0.00 0.00 55 1009.4
20260505031003 60 199 3.5 15.6 0.00 0.00 0.00 55 1009.8
20260505030503 60 203 3.5 11.3 0.00 0.00 0.00 54 1009.8
20260505030003 60 199 3.5 10.4 0.00 0.00 0.00 54 1009.4
20260505025503 60 195 3.5 12.2 0.00 0.00 0.00 54 1009.8
20260505025003 60 190 3.5 12.2 0.00 0.00 0.00 54 1009.8
20260505024503 60 184 3.5 13.9 0.00 0.00 0.00 54 1009.8
20260505024025 61 191 5.2 13.9 0.00 0.00 0.00 53 1009.4
20260505023503 61 200 4.3 12.2 0.00 0.00 0.00 52 1009.8
20260505023003 61 204 4.3 15.6 0.00 0.00 0.00 52 1009.8
20260505022503 61 203 4.3 15.6 0.00 0.00 0.00 52 1009.8
20260505022024 61 196 4.3 11.3 0.00 0.00 0.00 52 1009.8
20260505021503 61 187 3.5 12.2 0.00 0.00 0.00 52 1009.8
20260505021003 61 189 4.3 12.2 0.00 0.00 0.00 52 1009.8
20260505020504 62 194 4.3 13.0 0.00 0.00 0.00 51 1009.8
20260505020003 62 190 3.5 13.0 0.00 0.00 0.00 52 1009.4
20260505015503 62 189 3.5 13.0 0.00 0.00 0.00 51 1009.4
20260505015024 62 190 4.3 12.2 0.00 0.00 0.00 51 1009.4
20260505014524 62 190 3.5 12.2 0.00 0.00 0.00 50 1009.4
20260505014003 62 197 3.5 8.7 0.00 0.00 0.00 51 1009.4
20260505013504 63 199 3.5 8.7 0.00 0.00 0.00 50 1009.4
20260505013003 63 193 4.3 15.6 0.00 0.00 0.00 49 1009.4
20260505012503 63 189 4.3 15.6 0.00 0.00 0.00 49 1009.1
20260505012003 63 189 3.5 12.2 0.00 0.00 0.00 49 1009.1
20260505011503 63 195 3.5 12.2 0.00 0.00 0.00 49 1009.1
20260505011003 63 199 4.3 18.2 0.00 0.00 0.00 48 1009.1
20260505010503 64 197 4.3 18.2 0.00 0.00 0.00 47 1008.8
20260505010004 64 194 4.3 14.8 0.00 0.00 0.00 47 1008.4
20260505005503 64 195 4.3 14.8 0.00 0.00 0.00 47 1008.4
20260505005003 64 195 4.3 13.9 0.00 0.00 0.00 46 1008.4
20260505004524 65 186 4.3 11.3 0.00 0.00 0.00 46 1008.8
20260505004003 65 191 4.3 14.8 0.00 0.00 0.00 45 1008.1
20260505003524 65 192 4.3 14.8 0.00 0.00 0.00 45 1008.1
20260505003024 66 193 5.2 13.0 0.00 0.00 0.00 44 1007.7
20260505002503 66 198 5.2 14.8 0.00 0.00 0.00 43 1007.7
20260505002003 66 195 5.2 14.8 0.00 0.00 0.00 42 1007.4
20260505001503 67 195 3.5 13.0 0.00 0.00 0.00 40 1007.4
20260505001003 67 202 1.7 5.2 0.00 0.00 0.00 38 1007.1
20260505000524 67 212 1.7 5.2 0.00 0.00 0.00 37 1007.1
20260505000003 68 198 1.7 4.3 0.00 0.00 0.00 37 1006.7
20260504235503 68 199 1.7 7.8 0.00 0.00 0.00 36 1006.7
20260504235003 68 203 2.6 7.8 0.00 0.00 0.00 36 1006.7
20260504234503 69 214 3.5 9.6 0.00 0.00 0.00 35 1006.7
20260504234024 69 224 3.5 9.6 0.00 0.00 0.00 35 1006.7
20260504233524 69 226 2.6 9.6 0.00 0.00 0.00 35 1006.7
20260504233003 69 214 2.6 14.8 0.00 0.00 0.00 35 1006.7
20260504232504 70 209 2.6 14.8 0.00 0.00 0.00 35 1006.4
20260504232003 70 222 2.6 10.4 0.00 0.00 0.00 34 1006.7
20260504231503 71 226 2.6 11.3 0.00 0.00 0.00 33 1006.4
20260504231003 70 216 2.6 11.3 0.00 0.00 0.00 34 1006.0
20260504230503 70 226 3.5 11.3 0.00 0.00 0.00 34 1006.4
20260504230003 71 226 5.2 11.3 0.00 0.00 0.00 34 1006.4
20260504225504 71 221 4.3 13.9 0.00 0.00 0.00 33 1006.0
20260504225003 71 221 3.5 13.9 0.00 0.00 0.00 33 1006.0
20260504224503 71 216 3.5 13.9 0.00 0.00 0.00 33 1006.0
20260504224004 71 207 3.5 11.3 0.00 0.00 0.00 33 1006.0
20260504223503 71 216 2.6 12.2 0.00 0.00 0.00 33 1006.0
20260504223003 70 223 2.6 12.2 0.00 0.00 0.00 33 1006.0
20260504222524 70 238 2.6 12.2 0.00 0.00 0.00 34 1006.0
20260504222003 71 233 3.5 13.9 0.00 0.00 0.00 33 1006.0
20260504221503 71 221 4.3 18.2 0.00 0.00 0.00 32 1006.0
20260504221024 72 211 6.1 18.2 0.00 0.00 0.00 31 1006.0
20260504220503 72 211 5.2 18.2 0.00 0.00 0.00 31 1006.0
20260504220003 72 214 4.3 20.0 0.00 0.00 0.00 32 1006.0
20260504215503 72 216 5.2 20.0 0.00 0.00 0.00 32 1006.0
20260504215003 72 220 4.3 11.3 0.00 0.00 0.00 31 1006.0
20260504214503 73 221 4.3 17.4 0.00 0.00 0.00 32 1006.0
20260504214024 72 227 5.2 17.4 0.00 0.00 0.00 31 1006.0
20260504213503 72 229 5.2 21.7 0.00 0.00 0.00 32 1006.0
20260504213024 72 229 5.2 21.7 0.00 0.00 0.00 31 1006.0
20260504212503 72 236 4.3 18.2 0.00 0.00 0.00 32 1006.0
20260504212003 72 232 4.3 16.5 0.00 0.00 0.00 32 1006.0
20260504211524 73 224 4.3 16.5 0.00 0.00 0.00 31 1006.0
20260504211003 73 210 5.2 14.8 0.00 0.00 0.00 31 1006.0
20260504210503 71 213 5.2 17.4 0.00 0.00 0.00 32 1006.0
20260504210003 71 222 5.2 17.4 0.00 0.00 0.00 32 1006.0
20260504205503 71 213 5.2 17.4 0.00 0.00 0.00 32 1006.0
20260504205003 71 207 5.2 17.4 0.00 0.00 0.00 31 1006.0
20260504204524 71 212 5.2 15.6 0.00 0.00 0.00 31 1006.0
20260504204004 71 214 5.2 16.5 0.00 0.00 0.00 31 1006.0
20260504203503 71 209 6.1 20.0 0.00 0.00 0.00 31 1006.0
20260504203003 72 220 5.2 20.0 0.00 0.00 0.00 31 1006.0
20260504202503 72 233 3.5 12.2 0.00 0.00 0.00 31 1006.0
20260504202003 71 226 3.5 12.2 0.00 0.00 0.00 31 1006.0
20260504201503 71 229 4.3 15.6 0.00 0.00 0.00 31 1006.0
20260504201003 72 223 5.2 15.6 0.00 0.00 0.00 30 1006.0
20260504200503 72 218 5.2 18.2 0.00 0.00 0.00 29 1006.0
20260504200003 72 245 7.0 18.2 0.00 0.00 0.00 30 1006.0
20260504195503 71 258 6.1 13.9 0.00 0.00 0.00 32 1006.0
20260504195003 72 235 3.5 11.3 0.00 0.00 0.00 31 1005.7
20260504194503 71 216 4.3 13.0 0.00 0.00 0.00 31 1006.0
20260504194003 71 227 4.3 13.0 0.00 0.00 0.00 31 1006.0
20260504193503 71 235 4.3 12.2 0.00 0.00 0.00 31 1006.0
20260504193003 72 215 5.2 20.0 0.00 0.00 0.00 30 1006.0
20260504192524 72 221 6.1 20.0 0.00 0.00 0.00 30 1006.0
20260504192003 70 226 5.2 19.1 0.00 0.00 0.00 31 1006.0
20260504191503 72 211 5.2 20.0 0.00 0.00 0.00 29 1006.0
20260504191003 70 217 7.0 25.2 0.00 0.00 0.00 30 1006.0
20260504190524 71 230 7.0 25.2 0.00 0.00 0.00 30 1006.4
20260504190003 71 213 7.0 23.5 0.00 0.00 0.00 31 1006.4
20260504185503 71 200 7.0 24.3 0.00 0.00 0.00 29 1006.4
20260504185003 71 199 7.8 24.3 0.00 0.00 0.00 30 1006.4
20260504184503 70 204 6.1 24.3 0.00 0.00 0.00 30 1006.7
20260504184003 71 211 6.1 23.5 0.00 0.00 0.00 30 1006.7
20260504183503 71 214 7.0 23.5 0.00 0.00 0.00 31 1006.4
20260504183003 71 215 7.0 18.2 0.00 0.00 0.00 31 1006.7
20260504182503 70 222 7.0 17.4 0.00 0.00 0.00 30 1006.7
20260504182003 71 246 5.2 13.0 0.00 0.00 0.00 31 1006.7
20260504181524 70 240 5.2 15.6 0.00 0.00 0.00 31 1006.4
20260504181003 70 233 6.1 18.2 0.00 0.00 0.00 30 1006.7
20260504180503 68 228 6.1 20.0 0.00 0.00 0.00 32 1006.7
20260504180003 69 245 7.0 20.0 0.00 0.00 0.00 31 1006.7
20260504175503 69 259 7.0 18.2 0.00 0.00 0.00 31 1006.7
20260504175004 68 241 7.0 26.1 0.00 0.00 0.00 33 1006.7
20260504174503 69 233 7.0 26.1 0.00 0.00 0.00 31 1006.7
20260504174003 70 232 6.1 20.0 0.00 0.00 0.00 32 1006.7
20260504173503 69 243 6.1 20.0 0.00 0.00 0.00 31 1006.7
20260504173003 68 254 6.1 17.4 0.00 0.00 0.00 32 1007.1
20260504172503 68 251 6.1 17.4 0.00 0.00 0.00 32 1006.7
20260504172003 68 250 6.1 23.5 0.00 0.00 0.00 33 1007.1
20260504171503 68 235 7.0 23.5 0.00 0.00 0.00 31 1007.1
20260504171003 68 231 7.0 23.5 0.00 0.00 0.00 32 1006.7
20260504170524 68 221 7.0 27.8 0.00 0.00 0.00 34 1006.7
20260504151004 64 234 6.1 18.2 0.00 0.00 0.00 39 1008.1
20260504150503 64 229 5.2 17.4 0.00 0.00 0.00 38 1008.1
20260504141024 61 249 5.2 16.5 0.00 0.00 0.00 42 1008.8
20260504140503 62 249 5.2 16.5 0.00 0.00 0.00 41 1008.8
20260504130503 58 225 4.3 13.0 0.00 0.00 0.00 45 1009.4
20260504110503 48 177 0.9 4.3 0.00 0.00 0.00 59 1010.5
20260504100503 46 188 2.6 7.8 0.00 0.00 0.00 59 1010.1
20260504081503 45 169 1.7 5.2 0.00 0.00 0.00 58 1009.8
20260504081004 45 177 1.7 5.2 0.00 0.00 0.00 58 1010.1
20260504080504 45 186 1.7 5.2 0.00 0.00 0.00 58 1010.1
20260504050524 41 160 1.7 5.2 0.00 0.01 0.00 65 1010.1
20260504050004 41 162 2.6 5.2 0.00 0.01 0.00 64 1010.1
20260504045503 42 171 2.6 5.2 0.00 0.01 0.00 63 1009.8
20260504045003 42 169 2.6 5.2 0.00 0.01 0.00 61 1010.1
20260504044504 42 165 2.6 5.2 0.00 0.01 0.00 61 1010.1
20260504044003 42 165 2.6 5.2 0.00 0.01 0.00 62 1010.1
20260504043503 42 169 2.6 5.2 0.00 0.01 0.00 62 1010.1
20260504043003 42 179 2.6 5.2 0.00 0.01 0.00 61 1010.1
20260504042504 42 169 2.6 5.2 0.00 0.01 0.00 62 1009.8
20260504042003 42 168 2.6 5.2 0.00 0.01 0.00 62 1009.8
20260504041504 42 176 2.6 5.2 0.00 0.01 0.00 63 1009.8
20260504041003 42 169 2.6 6.1 0.00 0.01 0.00 64 1009.8
20260504040503 42 166 2.6 6.1 0.00 0.01 0.00 62 1009.8
20260504040004 42 165 2.6 5.2 0.00 0.01 0.00 62 1009.8
20260504035503 42 162 1.7 4.3 0.00 0.01 0.01 63 1009.4
20260504035003 41 166 1.7 4.3 0.00 0.01 0.01 66 1009.8
20260504034503 41 155 1.7 4.3 0.00 0.01 0.01 66 1009.8
20260504034003 41 147 1.7 3.5 0.00 0.01 0.01 64 1009.4
20260504033504 42 157 1.7 3.5 0.00 0.01 0.01 64 1009.4
20260504033003 42 168 2.6 3.5 0.00 0.01 0.01 64 1009.8
20260504032503 42 170 1.7 3.5 0.00 0.01 0.01 61 1009.4
20260504032003 42 163 2.6 4.3 0.00 0.01 0.01 61 1009.8